Regional Weather Roundup
Issued by NWS Kansas City/Pleasant Hill, MO

Home | Current Version | Previous Version | Text Only | Print | Product List | Glossary On
Versions: 1 2 3 4 5 6 7 8 9 10 11 12 13 14 15 16 17 18 19 20 21 22 23 24 25 26 27 28 29 30 31 32 33 34 35 36 37 38 39 40 41 42 43 44 45 46 47 48 49 50
000
ASUS43 KEAX 261710
RWREAX

WEATHER ROUNDUP FOR EASTERN KANSAS AND NORTHWEST MISSOURI
NATIONAL WEATHER SERVICE KANSAS CITY/PLEASANT HILL MO
1200 PM CDT THU MAY 26 2016

KSZ040-057-103>105-MOZ028-029-037-043-261800-
...KANSAS CITY METROPOLITAN AREA...

CITY           SKY/WX    TMP DP  RH WIND       PRES   REMARKS
K.C. INTL      CLOUDY    71  66  84 S9        29.88S
K.C. DOWNTOWN  CLOUDY    73  62  68 VRB6      29.88F
LEES SUMMIT    PTSUNNY   78  69  73 E8        29.90S
OLATHE - IXD   CLOUDY    78  71  79 SE15      29.89R
OLATHE - OJC   PTSUNNY   77  69  76 SE10      29.89S
LAWRENCE       PTSUNNY   78  72  81 SE20      29.85F

$$

MOZ001>008-011>017-020>025-030>033-038>040-044>046-053-054-261800-
...NORTHERN AND CENTRAL MISSOURI...

CITY           SKY/WX    TMP DP  RH WIND       PRES   REMARKS
ST. JOSEPH     CLOUDY    68  65  90 SE8       29.86F
MOSBY          CLOUDY    72  64  78 CALM      29.90R
WARRENSBURG    MOSUNNY   81  64  57 CALM      29.92R
WHITEMAN AFB   NOT AVBL
CLINTON        SUNNY     77  68  73 S7        29.92S
SEDALIA        SUNNY     81  67  62 SW6       29.93R
WARSAW         NOT AVBL
CHILLICOTHE      N/A     73  63  70 NW8G17    29.91S
KIRKSVILLE     CLOUDY    79  62  56 S6        29.92S

$$

MOZ041-047>049-056>058-063>065-088>090-097-261800-
...EASTERN AND SOUTHERN MISSOURI...

CITY           SKY/WX    TMP DP  RH WIND       PRES   REMARKS
ST. LOUIS INTL CLOUDY    74  65  73 S17G25    29.94F
SPIRIT OF STL  MOSUNNY   75  68  78 S16G28    29.93F
COLUMBIA       PTSUNNY   80  68  66 S5        29.91R
JEFFERSON CITY PTSUNNY   79  69  71 SE9       29.90S
ROLLA          CLOUDY    72  68  87 E10       29.90F
SPRINGFIELD    SUNNY     83  70  64 S10       29.94F
BRANSON        PTSUNNY   82  72  69 S8        29.99F
JOPLIN         MOSUNNY   85  73  67 S17G23    29.90F HX  91
WEST PLAINS    PTSUNNY   83  70  64 SW10      29.99F

$$

IAZ060-094-KSZ022-034>040-054-083-096-NEZ052-066-093-261800-
...KANSAS...SOUTHEAST NEBRASKA AND IOWA...

CITY           SKY/WX    TMP DP  RH WIND       PRES   REMARKS
TOPEKA         PTSUNNY   76  71  85 SE16      29.84F
MANHATTAN      PTSUNNY   82  73  74 SE10      29.79F
EMPORIA        PTSUNNY   81  73  76 S20G25    29.81F
CHANUTE        PTSUNNY   83  72  69 S23G29    29.85F
WICHITA        PTSUNNY   84  73  69 S15G25    29.79S HX  90
OMAHA          MOSUNNY   81  58  45 VRB3      29.85F
LINCOLN        SUNNY     79  62  56 NE9       29.83F
FALLS CITY     CLOUDY    77  67  71 S13       29.84S
LAMONI         CLOUDY    74  65  73 SE6       29.89F
DES MOINES     MOSUNNY   77  63  61 S9        29.89S

$$




USA.gov is the U.S. government's official web portal to all federal, state and local government web resources and services.